�������l�o���
Date,Time,MP-1(��Sv/h),MP-2(��Sv/h),MP-3(��Sv/h),MP-4(��Sv/h),MP-5(��Sv/h),MP-6(��Sv/h),MP-7(��Sv/h),MP-8(��Sv/h),����,����(m/s),���J
2022/04/26,00:00,0.580,0.864,0.550,1.046,0.745,0.351,0.604,0.569,��,7.0,��
2022/04/26,00:10,0.580,0.862,0.551,1.046,0.745,0.351,0.605,0.567,��,7.3,��
2022/04/26,00:20,0.580,0.862,0.549,1.046,0.746,0.349,0.603,0.568,��,6.8,��
2022/04/26,00:30,0.580,0.864,0.552,1.046,0.744,0.352,0.603,0.569,��,6.7,��
2022/04/26,00:40,0.580,0.864,0.552,1.048,0.745,0.351,0.603,0.569,��,6.3,��
2022/04/26,00:50,0.580,0.863,0.550,1.047,0.744,0.351,0.603,0.567,��,6.3,��
2022/04/26,01:00,0.580,0.860,0.550,1.047,0.745,0.351,0.603,0.568,��,6.4,��
2022/04/26,01:10,0.581,0.863,0.551,1.045,0.743,0.351,0.601,0.568,��,6.4,��
2022/04/26,01:20,0.579,0.862,0.551,1.049,0.745,0.351,0.602,0.569,��,7.1,��
2022/04/26,01:30,0.579,0.863,0.551,1.047,0.744,0.350,0.602,0.568,��,7.0,��
2022/04/26,01:40,0.579,0.863,0.548,1.047,0.744,0.351,0.603,0.567,��,6.3,��
2022/04/26,01:50,0.581,0.864,0.549,1.045,0.744,0.352,0.603,0.568,��,6.5,��
2022/04/26,02:00,0.581,0.864,0.552,1.048,0.743,0.351,0.602,0.568,��,6.1,��
2022/04/26,02:10,0.580,0.863,0.552,1.046,0.742,0.350,0.603,0.568,��,7.0,��
2022/04/26,02:20,0.579,0.861,0.553,1.048,0.743,0.351,0.603,0.568,��,6.7,��
2022/04/26,02:30,0.581,0.862,0.549,1.045,0.743,0.349,0.602,0.567,��,6.5,��
2022/04/26,02:40,0.578,0.859,0.551,1.045,0.742,0.350,0.603,0.568,��,6.1,��
2022/04/26,02:50,0.580,0.863,0.550,1.046,0.741,0.351,0.604,0.568,��,8.0,��
2022/04/26,03:00,0.578,0.862,0.550,1.047,0.744,0.350,0.603,0.567,��,7.2,��
2022/04/26,03:10,0.580,0.861,0.550,1.044,0.744,0.350,0.603,0.567,��,7.0,��
2022/04/26,03:20,0.579,0.863,0.550,1.047,0.744,0.351,0.602,0.567,��,6.4,��
2022/04/26,03:30,0.579,0.860,0.550,1.048,0.743,0.352,0.603,0.569,��,7.2,��
2022/04/26,03:40,0.579,0.861,0.552,1.045,0.743,0.351,0.603,0.569,��,6.4,��
2022/04/26,03:50,0.580,0.860,0.548,1.045,0.742,0.351,0.602,0.567,��,6.3,��
2022/04/26,04:00,0.578,0.862,0.550,1.047,0.744,0.351,0.604,0.568,��,7.3,��
2022/04/26,04:10,0.581,0.861,0.550,1.045,0.744,0.350,0.603,0.569,��,6.9,��
2022/04/26,04:20,0.580,0.863,0.550,1.046,0.743,0.352,0.602,0.569,��,7.1,��
2022/04/26,04:30,0.580,0.859,0.550,1.046,0.743,0.352,0.602,0.568,��,6.3,��
2022/04/26,04:40,0.577,0.860,0.550,1.046,0.742,0.350,0.602,0.568,��,6.0,��
2022/04/26,04:50,0.578,0.862,0.550,1.047,0.742,0.351,0.603,0.568,��,5.5,��
2022/04/26,05:00,0.580,0.863,0.550,1.046,0.743,0.351,0.602,0.568,��,5.0,��
2022/04/26,05:10,0.579,0.863,0.550,1.046,0.743,0.349,0.602,0.568,��,4.4,��
2022/04/26,05:20,0.579,0.861,0.550,1.046,0.743,0.352,0.603,0.568,��,3.6,��
2022/04/26,05:30,0.577,0.860,0.549,1.046,0.743,0.349,0.604,0.568,��,2.9,��
2022/04/26,05:40,0.578,0.863,0.551,1.047,0.743,0.351,0.602,0.567,��,3.1,��
2022/04/26,05:50,0.580,0.861,0.550,1.046,0.742,0.350,0.602,0.567,��,4.1,��
2022/04/26,06:00,0.578,0.863,0.551,1.046,0.742,0.352,0.601,0.569,��,4.6,��
2022/04/26,06:10,0.581,0.862,0.550,1.046,0.743,0.349,0.602,0.568,��,5.6,��
2022/04/26,06:20,0.580,0.862,0.551,1.046,0.743,0.350,0.602,0.567,��,6.4,��
2022/04/26,06:30,0.580,0.860,0.551,1.045,0.742,0.350,0.602,0.569,��,5.4,��
2022/04/26,06:40,0.580,0.862,0.550,1.047,0.744,0.350,0.604,0.568,��,4.6,��
2022/04/26,06:50,0.579,0.862,0.551,1.045,0.745,0.350,0.602,0.569,��,3.7,��
2022/04/26,07:00,0.579,0.864,0.552,1.046,0.745,0.349,0.601,0.569,��쐼,2.9,��
2022/04/26,07:10,0.581,0.861,0.549,1.047,0.742,0.348,0.602,0.568,��쐼,1.9,��
2022/04/26,07:20,0.581,0.863,0.550,1.046,0.743,0.348,0.600,0.568,��쐼,3.1,��
2022/04/26,07:30,0.578,0.862,0.550,1.046,0.744,0.350,0.600,0.568,��,3.5,��
2022/04/26,07:40,0.580,0.859,0.550,1.047,0.743,0.350,0.602,0.568,��쓌,3.7,��
2022/04/26,07:50,0.579,0.861,0.551,1.047,0.745,0.349,0.601,0.567,��,8.6,��
2022/04/26,08:00,0.581,0.861,0.551,1.048,0.744,0.350,0.601,0.567,��,10.0,��
2022/04/26,08:10,0.579,0.864,0.551,1.048,0.744,0.350,0.600,0.568,��,11.3,��
2022/04/26,08:20,0.581,0.861,0.551,1.047,0.743,0.348,0.600,0.567,��,12.4,��
2022/04/26,08:30,0.579,0.859,0.551,1.047,0.744,0.348,0.600,0.566,��,11.3,��
2022/04/26,08:40,0.578,0.859,0.552,1.048,0.742,0.348,0.601,0.565,��,11.7,��
2022/04/26,08:50,0.577,0.858,0.551,1.047,0.745,0.350,0.601,0.566,��,9.2,��
2022/04/26,09:00,0.578,0.856,0.549,1.046,0.742,0.349,0.602,0.567,��,8.7,��
2022/04/26,09:10,0.579,0.856,0.549,1.047,0.743,0.349,0.602,0.567,��,9.3,��
2022/04/26,09:20,0.578,0.857,0.548,1.048,0.741,0.349,0.603,0.567,��,8.1,��
2022/04/26,09:30,0.577,0.859,0.549,1.048,0.741,0.350,0.602,0.566,��,9.9,��
2022/04/26,09:40,0.580,0.858,0.547,1.047,0.742,0.349,0.601,0.565,��,10.6,��
2022/04/26,09:50,0.576,0.858,0.548,1.048,0.742,0.350,0.601,0.565,��,11.4,��
2022/04/26,10:00,0.578,0.859,0.549,1.047,0.743,0.349,0.602,0.565,��,11.3,�L
2022/04/26,10:10,0.578,0.858,0.548,1.048,0.741,0.350,0.601,0.565,��,11.0,�L
2022/04/26,10:20,0.579,0.858,0.549,1.047,0.742,0.348,0.603,0.565,��,9.5,��
2022/04/26,10:30,0.578,0.856,0.549,1.048,0.742,0.350,0.603,0.567,��,8.5,��
2022/04/26,10:40,0.580,0.858,0.550,1.049,0.742,0.350,0.603,0.565,��,9.4,��
2022/04/26,10:50,0.578,0.857,0.550,1.048,0.742,0.350,0.603,0.566,��,9.8,��
2022/04/26,11:00,0.580,0.863,0.551,1.048,0.742,0.350,0.603,0.566,��,8.0,��
2022/04/26,11:10,0.579,0.858,0.551,1.047,0.743,0.350,0.604,0.565,��쓌,10.2,��
2022/04/26,11:20,0.579,0.858,0.550,1.046,0.743,0.349,0.606,0.567,��쓌,9.7,��
2022/04/26,11:30,0.579,0.859,0.550,1.045,0.744,0.349,0.603,0.568,��,8.1,��
2022/04/26,11:40,0.579,0.858,0.550,1.046,0.745,0.349,0.603,0.569,��,10.0,�L
2022/04/26,11:50,0.580,0.861,0.551,1.046,0.744,0.350,0.604,0.567,��,9.1,�L
2022/04/26,12:00,0.580,0.859,0.549,1.046,0.743,0.349,0.603,0.568,��,11.1,�L
2022/04/26,12:10,0.580,0.860,0.552,1.045,0.743,0.350,0.603,0.569,��,12.0,�L
2022/04/26,12:20,0.580,0.863,0.551,1.047,0.744,0.350,0.604,0.568,��,11.9,�L
2022/04/26,12:30,0.581,0.861,0.550,1.046,0.743,0.350,0.603,0.565,��,10.5,��
2022/04/26,12:40,0.581,0.861,0.551,1.045,0.744,0.349,0.603,0.568,��,12.2,��
2022/04/26,12:50,0.580,0.861,0.551,1.047,0.744,0.350,0.604,0.566,��,10.6,��
2022/04/26,13:00,0.580,0.860,0.552,1.047,0.742,0.350,0.603,0.567,��,11.7,��
2022/04/26,13:10,0.579,0.863,0.550,1.046,0.743,0.349,0.604,0.567,��,9.7,��
2022/04/26,13:20,0.581,0.859,0.552,1.045,0.742,0.350,0.604,0.568,��,10.8,��
2022/04/26,13:30,0.580,0.861,0.551,1.046,0.744,0.350,0.604,0.567,��,10.3,��
2022/04/26,13:40,0.580,0.859,0.551,1.047,0.743,0.352,0.604,0.566,��,10.6,��
2022/04/26,13:50,0.581,0.858,0.551,1.048,0.744,0.349,0.604,0.566,��,11.4,��
2022/04/26,14:00,0.582,0.858,0.551,1.047,0.745,0.349,0.604,0.567,��,10.2,��
2022/04/26,14:10,0.581,0.860,0.552,1.046,0.743,0.350,0.604,0.569,��,10.5,��
2022/04/26,14:20,0.582,0.859,0.552,1.046,0.745,0.351,0.604,0.567,��,10.2,��
2022/04/26,14:30,0.582,0.859,0.552,1.047,0.744,0.351,0.603,0.567,��,8.4,��
2022/04/26,14:40,0.582,0.861,0.553,1.047,0.745,0.350,0.604,0.568,��,9.8,��
2022/04/26,14:50,0.581,0.861,0.551,1.047,0.745,0.351,0.603,0.568,��,12.1,�L
2022/04/26,15:00,0.582,0.860,0.550,1.048,0.743,0.350,0.604,0.567,��,11.6,��
2022/04/26,15:10,0.581,0.861,0.551,1.052,0.744,0.352,0.604,0.568,��,9.8,�L
2022/04/26,15:20,0.582,0.858,0.551,1.050,0.743,0.350,0.604,0.568,��,9.1,�L
2022/04/26,15:30,0.582,0.860,0.551,1.049,0.744,0.351,0.603,0.568,��,9.4,�L
2022/04/26,15:40,0.582,0.859,0.549,1.052,0.744,0.351,0.605,0.568,��,8.8,�L
2022/04/26,15:50,0.582,0.860,0.551,1.052,0.745,0.352,0.604,0.569,��,8.2,�L
2022/04/26,16:00,0.579,0.859,0.551,1.051,0.746,0.350,0.605,0.567,��,9.6,�L
2022/04/26,16:10,0.581,0.863,0.555,1.051,0.746,0.352,0.605,0.569,��,8.2,�L
2022/04/26,16:20,0.582,0.860,0.554,1.050,0.744,0.351,0.605,0.568,��,8.5,�L
2022/04/26,16:30,0.581,0.862,0.553,1.050,0.742,0.351,0.603,0.568,��,7.8,�L
2022/04/26,16:40,0.579,0.860,0.551,1.051,0.744,0.350,0.603,0.568,��쓌,9.1,�L
2022/04/26,16:50,0.578,0.856,0.549,1.047,0.739,0.349,0.601,0.567,��,8.1,�L
2022/04/26,17:00,0.574,0.853,0.549,1.046,0.737,0.348,0.602,0.567,��,9.3,�L
2022/04/26,17:10,0.577,0.852,0.546,1.047,0.736,0.349,0.602,0.566,��,7.6,�L
2022/04/26,17:20,0.575,0.849,0.545,1.045,0.734,0.348,0.599,0.567,��,7.5,�L
2022/04/26,17:30,0.574,0.850,0.546,1.047,0.734,0.350,0.600,0.565,��,7.4,�L
2022/04/26,17:40,0.575,0.849,0.544,1.046,0.735,0.351,0.602,0.566,��,8.5,�L
2022/04/26,17:50,0.573,0.850,0.545,1.045,0.735,0.350,0.600,0.565,��쓌,10.7,�L
2022/04/26,18:00,0.575,0.847,0.544,1.044,0.733,0.350,0.600,0.565,��,11.6,�L
2022/04/26,18:10,0.573,0.848,0.546,1.047,0.734,0.349,0.600,0.564,��,12.1,�L
2022/04/26,18:20,0.572,0.847,0.543,1.044,0.734,0.349,0.600,0.566,��,11.3,�L
2022/04/26,18:30,0.573,0.847,0.544,1.044,0.735,0.348,0.601,0.564,��,12.2,�L
2022/04/26,18:40,0.574,0.847,0.544,1.047,0.734,0.349,0.600,0.565,��,9.9,�L
2022/04/26,18:50,0.574,0.848,0.545,1.043,0.734,0.350,0.601,0.565,��,10.5,�L
2022/04/26,19:00,0.573,0.846,0.546,1.045,0.733,0.349,0.601,0.566,��,8.9,�L
2022/04/26,19:10,0.573,0.844,0.544,1.043,0.734,0.349,0.600,0.565,��,8.5,�L
2022/04/26,19:20,0.571,0.845,0.543,1.043,0.733,0.348,0.601,0.565,��,9.9,�L
2022/04/26,19:30,0.572,0.845,0.544,1.043,0.732,0.350,0.602,0.562,��,9.8,�L
2022/04/26,19:40,0.572,0.846,0.545,1.041,0.733,0.349,0.601,0.565,��,10.0,�L
2022/04/26,19:50,0.574,0.844,0.544,1.041,0.730,0.349,0.601,0.566,��,12.0,��
2022/04/26,20:00,0.572,0.846,0.545,1.042,0.732,0.350,0.601,0.565,��,12.7,��
2022/04/26,20:10,0.573,0.844,0.543,1.040,0.732,0.348,0.601,0.566,��,13.1,��
2022/04/26,20:20,0.573,0.845,0.543,1.041,0.732,0.348,0.601,0.565,��,12.1,��
2022/04/26,20:30,0.571,0.844,0.544,1.040,0.733,0.348,0.601,0.566,��,12.2,��
2022/04/26,20:40,0.573,0.844,0.541,1.044,0.731,0.349,0.601,0.564,��,11.9,��
2022/04/26,20:50,0.573,0.843,0.545,1.042,0.733,0.349,0.602,0.566,��,12.2,��
2022/04/26,21:00,0.573,0.843,0.543,1.041,0.730,0.348,0.601,0.565,��,11.6,��
2022/04/26,21:10,0.573,0.843,0.543,1.041,0.731,0.349,0.602,0.566,��,12.4,��
2022/04/26,21:20,0.571,0.843,0.542,1.040,0.731,0.348,0.603,0.565,��,10.3,��
2022/04/26,21:30,0.572,0.845,0.542,1.042,0.733,0.348,0.600,0.564,��,11.6,��
2022/04/26,21:40,0.571,0.845,0.541,1.041,0.731,0.348,0.601,0.565,��,10.8,��
2022/04/26,21:50,0.572,0.847,0.544,1.041,0.732,0.348,0.601,0.563,��,10.5,��
2022/04/26,22:00,0.572,0.844,0.544,1.043,0.733,0.348,0.603,0.563,��,9.8,��
2022/04/26,22:10,0.570,0.845,0.542,1.043,0.732,0.348,0.602,0.566,��,10.9,��
2022/04/26,22:20,0.571,0.845,0.544,1.043,0.731,0.349,0.601,0.567,��,11.7,�L
2022/04/26,22:30,0.571,0.845,0.544,1.042,0.733,0.348,0.602,0.565,��,9.6,�L
2022/04/26,22:40,0.572,0.846,0.544,1.041,0.730,0.349,0.603,0.567,��,8.2,�L
2022/04/26,22:50,0.572,0.844,0.544,1.042,0.731,0.349,0.603,0.566,��,7.6,�L
2022/04/26,23:00,0.574,0.845,0.544,1.041,0.733,0.349,0.601,0.565,��,8.3,��
2022/04/26,23:10,0.571,0.845,0.544,1.040,0.731,0.349,0.603,0.568,��,9.3,��
2022/04/26,23:20,0.574,0.845,0.546,1.042,0.733,0.350,0.601,0.568,��,10.0,��
2022/04/26,23:30,0.573,0.844,0.545,1.043,0.733,0.349,0.603,0.567,��,9.9,��
2022/04/26,23:40,0.574,0.844,0.544,1.043,0.732,0.350,0.603,0.567,��,9.4,��
2022/04/26,23:50,0.573,0.845,0.547,1.041,0.733,0.350,0.603,0.566,��쐼,8.0,��
